AirNav   Jet Aviation Boston
 
 471 users online  

05NY Oswego County Heliport at Pulaski
Pulaski, New York, USA

GOING TO PULASKI?


FAA INFORMATION EFFECTIVE 26 APRIL 2018

Location

FAA Identifier: 05NY
Lat/Long: 43-33-07.2500N / 076-05-24.7240W
43-33.120833N / 076-05.412067W
43.5520139 / -76.0902011
(estimated)
Elevation: 445 ft. / 136 m (estimated)
Variation: 12W (1985)
From city: 1 mile SE of PULASKI, NY
Time zone: UTC -4 (UTC -5 during Standard Time)
Zip code: 13142

Heliport Operations

Heliport use: Private use. Permission required prior to landing
Activation date: 03/1990
Control tower: no
ARTCC: BOSTON CENTER
FSS: BURLINGTON FLIGHT SERVICE STATION
Attendance: UNATNDD
Wind indicator: lighted
Segmented circle: no
Lights: ACTVT PERIMETER LGTS - 122.9.
Beacon: white-green-yellow (heliport)
ACTVT ROTG BCN - 122.9.

Heliport Communications

WX AWOS-3 at FZY (18 nm SW): 119.275 (315-598-8773)

Nearby radio navigation aids

VOR radial/distance  VOR name  Freq  Var
SYRr023/24.0SYRACUSE VORTAC117.0011W
ARTr195/24.0WATERTOWN VORTAC109.8012W

 
NDB name  Hdg/Dist  Freq  Var  ID
DRUM219/34.725713WGTB --. - -...

Heliport Services

Runway Information

Helipad H1

Dimensions: 75 x 75 ft. / 23 x 23 m
Surface: asphalt/concrete, in good condition
Runway edge lights: PERIMETER LGTS.
Traffic pattern: leftleft

Heliport Ownership and Management from official FAA records

Ownership: Privately-owned
Owner: OSWEGO CO HGWY DEPT
31 SCHAAD DR.
OSWEGO, NY 13126
Phone 315-349-8331
Manager: BRANDON SCHWERDT
40 AIRPORT DR
FULTON, NY 13069
Phone 315-349-8331

Instrument Procedures

There are no published instrument procedures at 05NY.

Some nearby airports with instrument procedures:

KFZY - Oswego County Airport (18 nm SW)
KSYR - Syracuse Hancock International Airport (26 nm S)
KART - Watertown International Airport (27 nm N)
KGTB - Wheeler-Sack Army Airfield (34 nm NE)
B16 - Whitfords Airport (34 nm SW)
 
Loc | Ops | Rwys | IFR | FBO | Links
Com | Nav | Svcs | Stats | Notes

AirNav Hotels Sweepstakes
 
Area around 05NY (Oswego County Heliport at Pulaski)
 
Road maps at: MapQuest Bing Google
 
Aerial photo
No photo
 
Sectional chart

 
Airport distance calculator
Flying to Oswego County Heliport at Pulaski? Find the distance to fly.

From to 05NY

Sunrise and sunset
Times for 22-May-2018
 Local
(UTC-4)
 Zulu
(UTC)
Morning civil twilight05:0009:00
Sunrise05:3409:34
Sunset20:2800:28
Evening civil twilight21:0201:02

Current date and time
Zulu (UTC)  22-May-2018 10:28:08
Local (UTC-4)  22-May-2018 06:28:08
 
METAR
KFZY 
18nm SW 
220954Z AUTO VRB05KT 10SM OVC090 16/08 A3005 RMK AO2 SLP175 T01560083
KART 
26nm N 
220956Z AUTO 11003KT 10SM OVC110 13/09 A3005 RMK AO2 SLP173 T01330094
KSYR 
26nm S 
220954Z 10005KT 10SM FEW070 BKN100 OVC120 13/11 A3005 RMK AO2 SLP171 T01330111
KGTB 
33nm NE 
220956Z AUTO 14008KT 10SM SCT120 14/08 A3005 RMK AO2 SLP176 T01420075
TAF
KART 
26nm N 
220538Z 2206/2306 VRB03KT P6SM OVC250 FM221000 11005KT P6SM OVC120 FM221400 10009KT 4SM -SHRA OVC040 FM221600 09010KT 6SM BR VCSH OVC050 FM221800 09008KT P6SM OVC040 FM230500 00000KT P6SM SCT035
KSYR 
26nm S 
220540Z 2206/2306 13005KT P6SM OVC140 TEMPO 2210/2214 -SHRA OVC040 FM221400 13007KT 5SM -SHRA OVC030 FM221800 18008KT P6SM OVC020 FM222000 20007KT P6SM -SHRA OVC015 FM222300 25006KT P6SM OVC012
NOTAMs
Click for the latest NOTAMs
NOTAMs are issued by the DoD/FAA and will open in a separate window not controlled by AirNav.

 

 
 

Would you like to see your business listed on this page?

 If your business provides an interesting product or service to pilots, flight crews, aircraft, or users of the Oswego County Heliport at Pulaski, you should consider listing it here.  To start the listing process, click on the button below
 
Add a business
 

Other Pages about Oswego County Heliport at Pulaski

Update a link
 
Copyright © AirNav, LLC. All rights reserved. Privacy Policy  Contact